[[{"header":{"parameterUnit":"m.s-1","parameterCategory":2,"la1":30.2991,"la2":30.254,"lo1":-89.0895,"lo2":-89.0444,"dy":0.0017,"dx":0.0017,"nx":28,"ny":28,"refTime":"2023-08-23T03:00:00:Z","depth":"0","parameterNumber":2,"parameterNumberName":"U-component_of_CURRENTS"},"data":[0,0,0,0,0,0,0,0,0,0,0,0,0,0,0,0,0,0,0,0,0,0,0,0,0,0,0,0,0,0,0,0,0,0,0,0,0,0,0,0,0,0,0,0,0,0,0,0,0,0,0,0,0,0,0,0,0,0,0.3059,0.3059,0,0.3076,0.3076,0.3076,0.307,0.307,0.307,0.307,0.3029,0.3028,0.3027,0,0,0,0,0,0,0,0,0,0,0,0,0,0.3045,0.3045,0.3059,0.3059,0.306,0.3076,0.3076,0.3076,0.307,0.307,0.307,0.307,0.3029,0.3028,0.3027,0,0,0,0,0,0,0,0,0,0,0,0,0,0.3052,0.3045,0.3059,0.3061,0.3062,0.3076,0.3076,0.3076,0.307,0.307,0.307,0.307,0.303,0.3028,0.3027,0.3019,0,0,0.3022,0.3022,0,0,0,0,0,0,0,0,0.3052,0.3053,0.306,0.3061,0.3062,0.3074,0.3056,0.3055,0.307,0.3063,0.307,0.307,0.3041,0.3038,0.3038,0.3018,0.3016,0.3022,0.3021,0.302,0.302,0,0,0,0,0,0,0,0.3052,0.3052,0.3062,0.3061,0.3062,0.307,0.307,0.3056,0.3049,0.3064,0.3064,0.3072,0.304,0.304,0.3037,0.3015,0.3022,0.3021,0.302,0.3019,0.3009,0.3009,0,0,0,0,0,0,0.3055,0.3051,0.3062,0.3063,0.306,0.3071,0.3071,0.3067,0.305,0.3049,0.3072,0.3071,0.3042,0.3039,0.3035,0.3045,0.3021,0.3019,0.3018,0.3008,0.3009,0.3009,0,0,0,0,0,0,0.3054,0.3055,0.3061,0.3061,0.3063,0.3071,0.3067,0.3068,0.3071,0.3057,0.3054,0.3076,0.3042,0.3038,0.3033,0.3042,0.3018,0.3017,0.3007,0.3008,0.3009,0.3051,0,0,0,0,0,0,0.3054,0.3054,0.3052,0.3061,0.3063,0.3072,0.3068,0.3068,0.3077,0.3077,0.306,0.3056,0.3042,0.3035,0.3031,0.304,0.3016,0.3006,0.3008,0.3009,0.3049,0.3053,0.3057,0,0,0,0,0,0.3053,0.3044,0.3051,0.3053,0.3059,0.3073,0.3074,0.3078,0.3078,0.3081,0.3074,0.3057,0.304,0.3035,0.303,0.3038,0.3006,0.3007,0.3009,0.3047,0.3052,0.3057,0,0,0,0,0,0,0.3029,0.3044,0.3051,0.3045,0.3063,0.3073,0.3074,0.3083,0.308,0.3077,0.3063,0.3059,0.3061,0.3043,0.3038,0.3039,0.3021,0.3021,0.3051,0.3056,0.306,0.3052,0.3015,0,0,0,0,0,0.3026,0.3023,0.3047,0.304,0.3052,0.3066,0.3072,0.3079,0.3082,0.3081,0.3073,0.3064,0.3062,0.3055,0.3048,0.3043,0.3045,0.3046,0.3051,0.3054,0.3045,0.3058,0.3063,0.3014,0.3014,0.3014,0,0,0.3011,0.3022,0.3017,0.3036,0.3047,0.3065,0.3068,0.3079,0.3091,0.3076,0.308,0.3079,0.3066,0.3068,0.3067,0.3054,0.3076,0.3056,0.3059,0.3047,0.306,0.3065,0.3069,0.3015,0.3015,0.3015,0,0,0.2994,0.2996,0.3,0.3018,0.3045,0.3058,0.3066,0.3086,0.3091,0.3101,0.3098,0.3103,0.3092,0.3091,0.3087,0.3108,0.3101,0.3107,0.3114,0.3128,0.3132,0.3136,0.3174,0.318,0.3104,0.3104,0.3104,0,0.2986,0.299,0.3003,0.3021,0.3035,0.3058,0.3075,0.3086,0.3101,0.3106,0.3105,0.311,0.3102,0.311,0.312,0.3116,0.313,0.3098,0.3134,0.3137,0.314,0.3178,0.3184,0.3106,0.3106,0.3106,0.3106,0,0.2982,0.299,0.2993,0.3024,0.304,0.3054,0.3083,0.3097,0.3109,0.312,0.3134,0.3133,0.3135,0.314,0.3134,0.3152,0.316,0.3144,0.3122,0.3147,0.3186,0.3192,0.3109,0.3109,0.3108,0.3107,0,0,0.2962,0.2988,0.299,0.3007,0.3045,0.3057,0.308,0.3108,0.312,0.3136,0.3153,0.3159,0.3163,0.3159,0.3161,0.3168,0.3215,0.3163,0.3163,0.3202,0.3267,0.3327,0.3339,0.3205,0.3206,0.3206,0.3298,0,0.2965,0.2987,0.3001,0.3024,0.3044,0.307,0.3088,0.3112,0.313,0.3151,0.3163,0.3177,0.317,0.3178,0.3187,0.3203,0.3227,0.3192,0.3234,0.3236,0.3286,0.3346,0.3298,0.3379,0.3304,0.3305,0.3305,0,0.2968,0.2984,0.3002,0.3031,0.3042,0.3056,0.3089,0.3108,0.3142,0.3156,0.3175,0.3188,0.3213,0.3202,0.3245,0.3225,0.325,0.3262,0.3265,0.3304,0.3306,0.3335,0.3393,0.3133,0.3314,0.3314,0.3313,0,0.2951,0.2986,0.2995,0.3006,0.3043,0.3054,0.3075,0.3106,0.3126,0.3162,0.3179,0.3209,0.3227,0.3255,0.329,0.3271,0.3342,0.332,0.3402,0.3408,0.3365,0.3365,0.3172,0.3356,0.3355,0.3355,0.3355,0,0.2947,0.2958,0.2987,0.2992,0.3012,0.304,0.3062,0.3085,0.3124,0.315,0.3177,0.3207,0.3238,0.3283,0.3311,0.339,0.3365,0.3421,0.3437,0.3383,0.3384,0.3155,0.3067,0.3359,0.3358,0.3357,0.3356,0,0.2921,0.2938,0.2958,0.2991,0.3002,0.3015,0.3058,0.3075,0.3109,0.3148,0.3164,0.3216,0.329,0.3338,0.3396,0.3425,0.3378,0.3517,0.347,0.348,0.333,0.3251,0.3118,0.3031,0.3635,0.3638,0.3639,0,0.2914,0.2917,0.2948,0.296,0.2973,0.3001,0.3019,0.3063,0.3087,0.3157,0.3176,0.326,0.3341,0.3467,0.354,0.3639,0.3432,0.3623,0.3578,0.3326,0.3248,0.3117,0.3042,0.3545,0.3546,0.3547,0.3547,0,0.2907,0.2909,0.2921,0.2944,0.2963,0.2981,0.3014,0.3033,0.309,0.3141,0.3221,0.3298,0.3449,0.3531,0.3656,0.3702,0.3418,0.3644,0.3368,0.3163,0.3019,0.2941,0.3488,0.3553,0.3553,0.3552,0.3552,0.3552,0.2913,0.291,0.2924,0.2944,0.2958,0.2964,0.2973,0.3021,0.3075,0.3145,0.3238,0.336,0.3445,0.3644,0.3628,0.3493,0.3505,0.3372,0.3305,0.3198,0.3075,0.3665,0.3755,0.3756,0.3756,0.3757,0.3757,0,0.2941,0.2926,0.2931,0.2947,0.2953,0.2963,0.2976,0.2979,0.3042,0.3151,0.3253,0.337,0.3389,0.3377,0.3295,0.3128,0.3009,0.2963,0.2684,0.2637,0.3136,0.3084,0.3049,0.3049,0.3049,0.3049,0.305,0.305,0.2958,0.2957,0.2945,0.2954,0.2958,0.2942,0.2943,0.2935,0.2999,0.3042,0.3125,0.3205,0.3145,0.2921,0.263,0.2585,0.2267,0.227,0.2151,0.2384,0.2411,0.2437,0.2357,0.217,0.2169,0.1579,0.1574,0.157]},{"header":{"parameterUnit":"m.s-1","parameterCategory":2,"la1":30.2991,"la2":30.254,"lo1":-89.0895,"lo2":-89.0444,"dy":0.0017,"dx":0.0017,"nx":28,"ny":28,"refTime":"2023-08-23T03:00:00:Z","depth":"0","parameterNumber":3,"parameterNumberName":"V-component_of_CURRENTS"},"data":[0,0,0,0,0,0,0,0,0,0,0,0,0,0,0,0,0,0,0,0,0,0,0,0,0,0,0,0,0,0,0,0,0,0,0,0,0,0,0,0,0,0,0,0,0,0,0,0,0,0,0,0,0,0,0,0,0,0,-0.0743,-0.0743,0,-0.0776,-0.0776,-0.0776,-0.0809,-0.081,-0.081,-0.081,-0.0855,-0.0856,-0.0857,0,0,0,0,0,0,0,0,0,0,0,0,0,-0.0738,-0.0737,-0.0743,-0.0743,-0.0744,-0.0776,-0.0776,-0.0777,-0.0809,-0.081,-0.081,-0.0811,-0.0855,-0.0856,-0.0857,0,0,0,0,0,0,0,0,0,0,0,0,0,-0.0752,-0.0737,-0.0743,-0.0764,-0.0766,-0.0776,-0.0776,-0.0777,-0.0809,-0.081,-0.081,-0.0811,-0.0855,-0.0856,-0.0857,-0.0851,0,0,-0.0861,-0.0861,0,0,0,0,0,0,0,0,-0.0751,-0.0752,-0.076,-0.0762,-0.0765,-0.0789,-0.0791,-0.0802,-0.0809,-0.0792,-0.081,-0.0811,-0.0834,-0.0837,-0.0841,-0.0853,-0.0855,-0.0861,-0.0862,-0.0862,-0.0862,0,0,0,0,0,0,0,-0.075,-0.0751,-0.0756,-0.0761,-0.0764,-0.0782,-0.0784,-0.0793,-0.0809,-0.0794,-0.0796,-0.08,-0.0836,-0.084,-0.0842,-0.0855,-0.0861,-0.0862,-0.0863,-0.0863,-0.0879,-0.0879,0,0,0,0,0,0,-0.0744,-0.075,-0.0754,-0.0757,-0.076,-0.0781,-0.0784,-0.0781,-0.0809,-0.0814,-0.08,-0.0802,-0.0838,-0.0841,-0.0844,-0.0844,-0.0862,-0.0863,-0.0864,-0.0879,-0.0879,-0.0879,0,0,0,0,0,0,-0.0744,-0.0744,-0.0753,-0.0755,-0.0757,-0.0781,-0.0776,-0.0781,-0.0785,-0.0813,-0.0818,-0.0799,-0.0838,-0.0843,-0.085,-0.0846,-0.0864,-0.0865,-0.088,-0.0879,-0.0879,-0.084,0,0,0,0,0,0,-0.0743,-0.0743,-0.074,-0.0754,-0.0757,-0.0753,-0.0776,-0.0781,-0.0786,-0.0789,-0.0814,-0.0819,-0.0839,-0.0848,-0.0851,-0.0848,-0.0866,-0.088,-0.0879,-0.0879,-0.0841,-0.0838,-0.0835,0,0,0,0,0,-0.0743,-0.0729,-0.0739,-0.074,-0.0751,-0.0752,-0.0755,-0.0774,-0.0785,-0.0781,-0.0801,-0.0818,-0.0847,-0.0848,-0.0852,-0.0849,-0.088,-0.0879,-0.0879,-0.0843,-0.0839,-0.0835,0,0,0,0,0,0,-0.0717,-0.0732,-0.0743,-0.0733,-0.0741,-0.0757,-0.0757,-0.0768,-0.078,-0.0783,-0.0811,-0.0817,-0.0824,-0.0839,-0.084,-0.0853,-0.0868,-0.0868,-0.0839,-0.0835,-0.0832,-0.0814,-0.0867,0,0,0,0,0,-0.0712,-0.0708,-0.0724,-0.0713,-0.0719,-0.0737,-0.0741,-0.0751,-0.0763,-0.0769,-0.0786,-0.0806,-0.0823,-0.0831,-0.0846,-0.0848,-0.0858,-0.085,-0.0847,-0.0844,-0.0831,-0.0845,-0.0842,-0.0877,-0.0877,-0.0877,0,0,-0.0697,-0.0705,-0.0702,-0.0709,-0.0718,-0.0718,-0.074,-0.0739,-0.0737,-0.0771,-0.0772,-0.0794,-0.0821,-0.0828,-0.0832,-0.084,-0.0839,-0.0843,-0.084,-0.0829,-0.0844,-0.0841,-0.0838,-0.0876,-0.0876,-0.0876,0,0,-0.0669,-0.0675,-0.067,-0.0673,-0.0685,-0.0696,-0.0693,-0.0707,-0.0715,-0.0715,-0.0745,-0.076,-0.0779,-0.08,-0.0814,-0.08,-0.0822,-0.081,-0.0778,-0.0792,-0.0789,-0.0787,-0.0793,-0.0792,-0.0808,-0.0808,-0.0808,0,-0.0665,-0.0651,-0.0666,-0.0661,-0.0663,-0.0684,-0.0677,-0.0683,-0.0695,-0.07,-0.0709,-0.0743,-0.0765,-0.0782,-0.0778,-0.0793,-0.0801,-0.0791,-0.0787,-0.0785,-0.0783,-0.0791,-0.0789,-0.0806,-0.0806,-0.0807,-0.0807,0,-0.0634,-0.0626,-0.062,-0.0626,-0.0625,-0.0619,-0.0633,-0.0632,-0.0643,-0.0655,-0.0667,-0.0696,-0.0719,-0.073,-0.0748,-0.0751,-0.0761,-0.0782,-0.0795,-0.0777,-0.0786,-0.0786,-0.0803,-0.0804,-0.0805,-0.0805,0,0,-0.0626,-0.0609,-0.0609,-0.0604,-0.0608,-0.0604,-0.0597,-0.0604,-0.06,-0.0614,-0.0615,-0.0644,-0.0662,-0.0678,-0.0709,-0.0716,-0.0711,-0.0735,-0.0737,-0.0737,-0.0733,-0.0703,-0.0699,-0.0732,-0.0732,-0.0731,-0.0744,0,-0.0609,-0.059,-0.0588,-0.0566,-0.0558,-0.0569,-0.056,-0.0563,-0.0571,-0.0573,-0.0605,-0.0617,-0.0644,-0.0654,-0.0666,-0.07,-0.0707,-0.0705,-0.0754,-0.0755,-0.0726,-0.0697,-0.0542,-0.0536,-0.0744,-0.0744,-0.0744,0,-0.0585,-0.0576,-0.0552,-0.0538,-0.0537,-0.0528,-0.0522,-0.0517,-0.0524,-0.053,-0.0546,-0.0571,-0.0588,-0.0613,-0.0653,-0.065,-0.0681,-0.0706,-0.0708,-0.0689,-0.0722,-0.0588,-0.0528,-0.0589,-0.0743,-0.0743,-0.0743,0,-0.0562,-0.0552,-0.0531,-0.0525,-0.0512,-0.0505,-0.0506,-0.0504,-0.0497,-0.0503,-0.0498,-0.053,-0.0542,-0.0582,-0.0628,-0.0641,-0.0666,-0.0699,-0.0702,-0.07,-0.0581,-0.0569,-0.0576,-0.072,-0.072,-0.072,-0.072,0,-0.0538,-0.0521,-0.052,-0.0502,-0.048,-0.0485,-0.0464,-0.0461,-0.0463,-0.0445,-0.0477,-0.0468,-0.0532,-0.0558,-0.0608,-0.064,-0.0654,-0.0679,-0.0695,-0.0563,-0.055,-0.061,-0.0692,-0.0721,-0.0721,-0.0721,-0.072,0,-0.0494,-0.0498,-0.0466,-0.0459,-0.0457,-0.0437,-0.0432,-0.0417,-0.0425,-0.04,-0.0399,-0.0421,-0.0443,-0.0505,-0.0564,-0.0605,-0.0659,-0.0661,-0.0496,-0.0492,-0.0551,-0.0637,-0.0685,-0.0716,-0.066,-0.0659,-0.0658,0,-0.0464,-0.0443,-0.0423,-0.0409,-0.0402,-0.0388,-0.0372,-0.0384,-0.0368,-0.0364,-0.0345,-0.0364,-0.0343,-0.0414,-0.0472,-0.0534,-0.0628,-0.0461,-0.046,-0.0516,-0.0624,-0.0692,-0.0721,-0.0288,-0.0284,-0.0281,-0.0279,0,-0.0403,-0.0397,-0.0378,-0.0348,-0.0331,-0.0309,-0.0297,-0.0277,-0.0281,-0.0244,-0.0208,-0.0191,-0.0242,-0.0201,-0.0292,-0.0344,-0.0469,-0.0405,-0.0493,-0.0351,-0.0393,-0.0441,-0.0334,-0.0252,-0.0255,-0.0257,-0.0258,-0.0259,-0.0354,-0.0339,-0.0323,-0.0292,-0.0268,-0.0235,-0.0197,-0.0163,-0.0106,0.0,-0.0043,0.0117,0.0109,0.0026,-0.013,-0.0219,-0.0341,-0.021,-0.0315,-0.0383,-0.039,-0.023,-0.0157,-0.0159,-0.0161,-0.0162,-0.0164,0,-0.0306,-0.0306,-0.0276,-0.0243,-0.02,-0.0202,-0.0146,-0.0071,0.0042,0.0221,0.0309,0.0561,0.0494,0.0355,0.0176,-0.0032,-0.0145,-0.0157,-0.0195,-0.0238,-0.0082,-0.0041,0.01,0.01,0.01,0.01,0.01,0.01,-0.0284,-0.0265,-0.0263,-0.0197,-0.0164,-0.0094,-0.0046,0.0108,0.0279,0.0625,0.0905,0.1048,0.1076,0.0501,0.013,0.0002,-0.0212,-0.0228,-0.0432,-0.0293,-0.0305,-0.0317,-0.0294,-0.0209,-0.021,-0.046,-0.0463,-0.0465]}],[{"header":{"parameterUnit":"m.s-1","parameterCategory":2,"la1":30.2991,"la2":30.254,"lo1":-89.0895,"lo2":-89.0444,"dy":0.0017,"dx":0.0017,"nx":28,"ny":28,"refTime":"2023-08-23T03:00:00:Z","depth":"2","parameterNumber":2,"parameterNumberName":"U-component_of_CURRENTS"},"data":[0,0,0,0,0,0,0,0,0,0,0,0,0,0,0,0,0,0,0,0,0,0,0,0,0,0,0,0,0,0,0,0,0,0,0,0,0,0,0,0,0,0,0,0,0,0,0,0,0,0,0,0,0,0,0,0,0,0,0.2886,0.2887,0,0.3008,0.3009,0.301,0.3104,0.3105,0.3106,0.3107,0.3195,0.3196,0.3198,0,0,0,0,0,0,0,0,0,0,0,0,0,0.2718,0.2721,0.2885,0.2887,0.2889,0.3007,0.3009,0.301,0.3104,0.3105,0.3107,0.3108,0.3195,0.3196,0.3198,0,0,0,0,0,0,0,0,0,0,0,0,0,0.2809,0.2721,0.2885,0.2951,0.2958,0.3007,0.3009,0.3011,0.3104,0.3105,0.3107,0.3109,0.3194,0.3196,0.3198,0.3179,0,0,0.3204,0.3205,0,0,0,0,0,0,0,0,0.2804,0.2815,0.294,0.2947,0.2955,0.3044,0.2982,0.3066,0.3103,0.3047,0.3107,0.3109,0.3141,0.3148,0.3165,0.3183,0.3187,0.3204,0.3206,0.3207,0.3207,0,0,0,0,0,0,0,0.2797,0.281,0.2932,0.2941,0.2951,0.2969,0.2984,0.2999,0.3082,0.3052,0.3059,0.3075,0.3145,0.3163,0.3168,0.3188,0.3204,0.3206,0.3207,0.3208,0.3348,0.335,0,0,0,0,0,0,0.2785,0.2804,0.2928,0.2936,0.2883,0.2971,0.2988,0.3012,0.3083,0.3096,0.3074,0.3079,0.3159,0.3165,0.3171,0.327,0.3207,0.3208,0.321,0.3346,0.3349,0.3351,0,0,0,0,0,0,0.2781,0.2795,0.2923,0.2873,0.2891,0.2973,0.3,0.3014,0.3073,0.31,0.3112,0.3123,0.316,0.3168,0.3232,0.3269,0.3209,0.3211,0.3343,0.3346,0.335,0.3391,0,0,0,0,0,0,0.2776,0.2793,0.2828,0.2873,0.2894,0.2962,0.2999,0.3015,0.3078,0.3088,0.3145,0.3153,0.3162,0.3229,0.3234,0.3271,0.3213,0.3339,0.3344,0.3349,0.3387,0.3396,0.3404,0,0,0,0,0,0.2769,0.2793,0.2829,0.2845,0.2932,0.2963,0.2975,0.3036,0.3079,0.3097,0.316,0.3153,0.3262,0.3232,0.3238,0.3276,0.3337,0.3343,0.3348,0.3383,0.3394,0.3404,0,0,0,0,0,0,0.2762,0.2806,0.2847,0.2893,0.2934,0.298,0.3012,0.3055,0.3119,0.3144,0.3177,0.3188,0.3254,0.3265,0.3231,0.3335,0.3301,0.3308,0.3326,0.3337,0.3345,0.3262,0.3215,0,0,0,0,0,0.2771,0.279,0.2844,0.2886,0.2907,0.297,0.3002,0.3041,0.3093,0.3126,0.3166,0.3222,0.3273,0.3307,0.3334,0.3388,0.3339,0.3422,0.3431,0.3438,0.3378,0.3386,0.3388,0.337,0.337,0.3369,0,0,0.2785,0.281,0.2829,0.2884,0.2926,0.294,0.2993,0.3042,0.3058,0.3121,0.3171,0.3241,0.3292,0.3356,0.3388,0.3377,0.3418,0.3445,0.345,0.3384,0.3392,0.3393,0.3394,0.3373,0.3373,0.3372,0,0,0.2785,0.2841,0.2849,0.2874,0.2931,0.295,0.297,0.3032,0.3069,0.3126,0.3188,0.3275,0.3345,0.339,0.3424,0.3492,0.3454,0.3537,0.3521,0.3533,0.3533,0.3532,0.3459,0.3451,0.3553,0.3553,0.3553,0,0.2816,0.2819,0.286,0.2869,0.2889,0.2952,0.2963,0.2993,0.3069,0.3099,0.3142,0.3286,0.3343,0.342,0.3464,0.3504,0.3482,0.3479,0.3539,0.3537,0.3535,0.346,0.3451,0.3556,0.3556,0.3555,0.3555,0,0.2795,0.2819,0.2824,0.2843,0.2872,0.2887,0.2928,0.2972,0.3034,0.3067,0.3164,0.3261,0.3351,0.3411,0.346,0.351,0.3486,0.3538,0.3498,0.3538,0.3459,0.3448,0.356,0.3559,0.3558,0.3557,0,0,0.28,0.2809,0.2818,0.2826,0.2857,0.288,0.2902,0.2936,0.2972,0.3052,0.3103,0.3227,0.3306,0.3347,0.345,0.347,0.3465,0.3509,0.3508,0.3405,0.3433,0.3369,0.3351,0.355,0.3549,0.3549,0.3376,0,0.2776,0.2782,0.2787,0.2793,0.2793,0.2847,0.2862,0.2911,0.2966,0.3024,0.3121,0.3207,0.3274,0.3374,0.34,0.3466,0.3442,0.3501,0.3432,0.3426,0.3343,0.3339,0.313,0.2956,0.3365,0.3363,0.3362,0,0.273,0.2739,0.275,0.2768,0.2781,0.2803,0.2864,0.2888,0.2958,0.3013,0.3099,0.3174,0.3246,0.331,0.3333,0.3381,0.3381,0.3396,0.3392,0.3292,0.3343,0.2989,0.292,0.3344,0.3345,0.3346,0.3348,0,0.2686,0.27,0.271,0.2718,0.2758,0.2799,0.2836,0.2904,0.293,0.3022,0.3062,0.3139,0.3206,0.3225,0.3279,0.3318,0.326,0.3324,0.3222,0.3215,0.299,0.2966,0.3267,0.3267,0.3268,0.3268,0.3269,0,0.2631,0.2644,0.2705,0.2715,0.2743,0.2795,0.2839,0.2895,0.2962,0.2982,0.3074,0.3103,0.3195,0.3199,0.3227,0.3175,0.3215,0.3158,0.3166,0.3001,0.2981,0.3292,0.3297,0.3262,0.3263,0.3265,0.3266,0,0.2599,0.2628,0.2636,0.2697,0.2721,0.2764,0.2835,0.2853,0.2935,0.2971,0.3003,0.306,0.3074,0.3112,0.3127,0.3095,0.3073,0.3038,0.2796,0.2779,0.3009,0.3019,0.2864,0.286,0.2857,0.2854,0.2852,0,0.2608,0.2595,0.2633,0.2639,0.2679,0.2738,0.2759,0.2844,0.2849,0.2933,0.2924,0.2967,0.2946,0.2902,0.2891,0.2842,0.2973,0.2596,0.2632,0.2943,0.2968,0.2983,0.2997,0.2331,0.2325,0.2319,0.2315,0,0.2585,0.2585,0.2574,0.2586,0.2614,0.2622,0.2664,0.2656,0.2739,0.2745,0.2721,0.2716,0.2721,0.2572,0.255,0.2519,0.2598,0.2489,0.2867,0.2501,0.2438,0.2464,0.2495,0.2269,0.2274,0.2277,0.228,0.2282,0.2558,0.2511,0.2471,0.2478,0.2507,0.2475,0.2426,0.2435,0.2397,0.234,0.2436,0.2326,0.2353,0.2183,0.2144,0.2144,0.2326,0.2222,0.2239,0.2261,0.2265,0.2205,0.1986,0.1989,0.1992,0.1994,0.1996,0,0.2442,0.2382,0.2364,0.2328,0.2298,0.238,0.2315,0.2201,0.2081,0.2059,0.1987,0.1757,0.1676,0.1765,0.169,0.1702,0.1707,0.165,0.164,0.1685,0.1726,0.1706,0.1277,0.1275,0.1273,0.1271,0,0,0.2354,0.2241,0.2193,0.2106,0.2118,0.2012,0.1935,0.179,0.1694,0.1484,0.1394,0.1445,0.1597,0.1339,0.1369,0.1308,0.1475,0.1261,0.1835,0.186,0.1897,0.2054,0.2075,0,0,0,0,0]},{"header":{"parameterUnit":"m.s-1","parameterCategory":2,"la1":30.2991,"la2":30.254,"lo1":-89.0895,"lo2":-89.0444,"dy":0.0017,"dx":0.0017,"nx":28,"ny":28,"refTime":"2023-08-23T03:00:00:Z","depth":"2","parameterNumber":3,"parameterNumberName":"V-component_of_CURRENTS"},"data":[0,0,0,0,0,0,0,0,0,0,0,0,0,0,0,0,0,0,0,0,0,0,0,0,0,0,0,0,0,0,0,0,0,0,0,0,0,0,0,0,0,0,0,0,0,0,0,0,0,0,0,0,0,0,0,0,0,0,0.0686,0.0685,0,0.0606,0.0605,0.0604,0.0504,0.0503,0.0502,0.05,0.031,0.0306,0.0302,0,0,0,0,0,0,0,0,0,0,0,0,0,0.0724,0.0724,0.0686,0.0685,0.0684,0.0606,0.0605,0.0603,0.0505,0.0503,0.0501,0.05,0.0311,0.0307,0.0302,0,0,0,0,0,0,0,0,0,0,0,0,0,0.068,0.0724,0.0686,0.0627,0.0622,0.0606,0.0605,0.0603,0.0505,0.0503,0.0501,0.0499,0.0313,0.0307,0.0301,0.0306,0,0,0.0284,0.0281,0,0,0,0,0,0,0,0,0.0683,0.0678,0.0637,0.0632,0.0625,0.0565,0.0549,0.0499,0.0505,0.0546,0.05,0.0498,0.0388,0.0376,0.0363,0.0297,0.0289,0.0283,0.028,0.0277,0.0276,0,0,0,0,0,0,0,0.0686,0.0681,0.0651,0.0636,0.0629,0.0596,0.0587,0.0539,0.0475,0.0543,0.0536,0.0532,0.0384,0.0369,0.0358,0.0286,0.0284,0.0278,0.0275,0.0273,0.0141,0.014,0,0,0,0,0,0,0.0705,0.0684,0.0654,0.0649,0.0652,0.0597,0.0587,0.0584,0.0478,0.0462,0.0534,0.0528,0.038,0.0365,0.0351,0.0319,0.0277,0.0272,0.0269,0.0141,0.0141,0.014,0,0,0,0,0,0,0.0706,0.0703,0.0657,0.0667,0.0659,0.0599,0.0596,0.0584,0.055,0.0473,0.0453,0.051,0.0378,0.0359,0.0297,0.0312,0.0269,0.0264,0.0141,0.0141,0.014,0.0275,0,0,0,0,0,0,0.0708,0.0704,0.07,0.0668,0.0659,0.0654,0.0598,0.0584,0.0553,0.0544,0.0447,0.0429,0.0375,0.0306,0.0291,0.0303,0.026,0.0141,0.0141,0.0141,0.027,0.0279,0.0287,0,0,0,0,0,0.0709,0.0718,0.07,0.0696,0.0659,0.0655,0.0648,0.0596,0.0554,0.0554,0.0479,0.043,0.0294,0.0302,0.0284,0.0295,0.0141,0.0141,0.0141,0.0267,0.0277,0.0286,0,0,0,0,0,0,0.0728,0.0708,0.0688,0.0688,0.0675,0.0639,0.0629,0.0596,0.0539,0.0514,0.0433,0.0411,0.0359,0.0306,0.0316,0.0252,0.0208,0.0205,0.031,0.0319,0.0327,0.0369,0.0255,0,0,0,0,0,0.0736,0.0735,0.0715,0.0715,0.071,0.0668,0.0654,0.0623,0.0576,0.0547,0.0481,0.0405,0.0351,0.0318,0.0258,0.023,0.0196,0.0221,0.0229,0.0237,0.0257,0.0227,0.0236,0.014,0.014,0.014,0,0,0.0743,0.0732,0.0729,0.0719,0.0698,0.0712,0.0653,0.0638,0.0644,0.0536,0.0503,0.0428,0.0347,0.0313,0.0286,0.0268,0.0244,0.0237,0.0244,0.026,0.0228,0.0238,0.0246,0.014,0.014,0.014,0,0,0.0765,0.0749,0.0756,0.0757,0.0739,0.0729,0.0728,0.0689,0.0663,0.0632,0.0552,0.0498,0.0406,0.0369,0.0335,0.0353,0.0285,0.0313,0.0396,0.0367,0.0376,0.0383,0.0355,0.0359,0.0323,0.0323,0.0323,0,0.0756,0.0781,0.0759,0.0775,0.0783,0.0744,0.0766,0.0752,0.0696,0.0688,0.0632,0.0519,0.0446,0.0427,0.0425,0.0378,0.034,0.0372,0.0383,0.0389,0.0394,0.0363,0.0366,0.0329,0.0329,0.0328,0.0327,0,0.0801,0.0813,0.0822,0.0836,0.0848,0.0859,0.0854,0.0845,0.0804,0.0788,0.0744,0.0648,0.0579,0.055,0.0489,0.0488,0.0442,0.0398,0.0371,0.0413,0.0376,0.0377,0.0339,0.0336,0.0334,0.0333,0,0,0.0785,0.0836,0.0836,0.0864,0.0879,0.0897,0.0922,0.0942,0.0956,0.0899,0.0907,0.0817,0.0753,0.0708,0.0623,0.0604,0.0601,0.0519,0.0514,0.0516,0.0532,0.0486,0.048,0.0552,0.0552,0.0553,0.0494,0,0.0812,0.0871,0.0887,0.095,0.0987,0.0982,0.1016,0.103,0.1016,0.1018,0.095,0.0906,0.0819,0.0763,0.0739,0.062,0.0606,0.0621,0.0469,0.0465,0.044,0.0481,0.0484,0.043,0.0494,0.0493,0.0493,0,0.0848,0.089,0.0953,0.1023,0.1034,0.106,0.1111,0.1132,0.1146,0.1121,0.109,0.1027,0.0975,0.0887,0.0765,0.0769,0.0667,0.0593,0.0588,0.0503,0.042,0.0394,0.0427,0.0493,0.0493,0.0493,0.0493,0,0.0875,0.0937,0.0994,0.1017,0.1086,0.1099,0.1122,0.1154,0.1174,0.1171,0.1174,0.1115,0.1047,0.0945,0.0774,0.0759,0.0647,0.0602,0.0483,0.0478,0.0432,0.0422,0.0545,0.0545,0.0545,0.0545,0.0545,0,0.0912,0.0951,0.1003,0.104,0.11,0.1126,0.1175,0.1188,0.1208,0.125,0.1206,0.1201,0.1053,0.0969,0.0825,0.0652,0.0677,0.0516,0.0468,0.0476,0.0471,0.0479,0.0472,0.0543,0.0543,0.0544,0.0544,0,0.0927,0.0959,0.1031,0.1099,0.1116,0.1149,0.1193,0.1234,0.1239,0.1286,0.1279,0.1246,0.1134,0.1001,0.0822,0.0697,0.0548,0.0481,0.0501,0.0457,0.0391,0.0392,0.0362,0.036,0.0359,0.0357,0.0356,0,0.0936,0.0979,0.107,0.1099,0.1116,0.1162,0.1203,0.1232,0.1288,0.131,0.1349,0.1264,0.1234,0.0981,0.0753,0.0537,0.0513,0.0382,0.0364,0.0421,0.0376,0.0379,0.0382,0.0352,0.0351,0.035,0.035,0,0.095,0.0977,0.1028,0.1115,0.1155,0.1229,0.1288,0.1334,0.1383,0.1445,0.1484,0.1454,0.1218,0.0998,0.0692,0.0539,0.0422,0.0355,0.0413,0.0396,0.0406,0.0364,0.0368,0.0342,0.0342,0.0343,0.0343,0.0344,0.0931,0.0966,0.1037,0.1115,0.1176,0.1273,0.1325,0.1423,0.1522,0.1585,0.1568,0.1504,0.1266,0.0856,0.0603,0.0329,0.0366,0.0263,0.0269,0.0274,0.0282,0.0288,0.0203,0.0203,0.0203,0.0203,0.0203,0,0.091,0.096,0.1034,0.1123,0.1207,0.1245,0.1376,0.1445,0.1573,0.1604,0.1635,0.1367,0.1133,0.0836,0.043,0.0214,0.0207,0.0129,0.0177,0.0188,0.0196,0.0201,0.01,0.0099,0.0098,0.0097,0,0,0.0893,0.093,0.099,0.1117,0.1191,0.1279,0.135,0.1472,0.1534,0.1568,0.1507,0.1461,0.1146,0.0831,0.055,0.031,0.0289,0.0256,0.0366,0.0467,0.0478,0.0304,0.0327,0,0,0,0,0]}],[{"header":{"parameterUnit":"m.s-1","parameterCategory":2,"la1":30.2991,"la2":30.254,"lo1":-89.0895,"lo2":-89.0444,"dy":0.0017,"dx":0.0017,"nx":28,"ny":28,"refTime":"2023-08-23T03:00:00:Z","depth":"4","parameterNumber":2,"parameterNumberName":"U-component_of_CURRENTS"},"data":[0,0,0,0,0,0,0,0,0,0,0,0,0,0,0,0,0,0,0,0,0,0,0,0,0,0,0,0,0,0,0,0,0,0,0,0,0,0,0,0,0,0,0,0,0,0,0,0,0,0,0,0,0,0,0,0,0,0,0.0507,0.0507,0,0.0533,0.0534,0.0535,0.0554,0.0553,0.0552,0.0551,0.0666,0.067,0.0674,0,0,0,0,0,0,0,0,0,0,0,0,0,0.0488,0.0489,0.0507,0.0507,0.0506,0.0533,0.0534,0.0536,0.0554,0.0553,0.0552,0.0551,0.0665,0.067,0.0674,0,0,0,0,0,0,0,0,0,0,0,0,0,0.0514,0.049,0.0507,0.051,0.051,0.0533,0.0534,0.0536,0.0554,0.0553,0.0552,0.055,0.0664,0.0669,0.0675,0.0736,0,0,0.0692,0.0695,0,0,0,0,0,0,0,0,0.0512,0.0516,0.0511,0.051,0.051,0.0529,0.0569,0.0604,0.0554,0.0549,0.0551,0.055,0.0623,0.0632,0.0654,0.0741,0.0746,0.0693,0.0697,0.0699,0.0701,0,0,0,0,0,0,0,0.0511,0.0515,0.0529,0.051,0.0509,0.0514,0.0518,0.0576,0.0603,0.0549,0.0548,0.0534,0.0624,0.0648,0.0656,0.0748,0.0693,0.0698,0.0702,0.0704,0.084,0.084,0,0,0,0,0,0,0.0486,0.0513,0.0528,0.0528,0.0496,0.0515,0.0519,0.0533,0.06,0.0605,0.0535,0.0534,0.0639,0.065,0.0661,0.0744,0.0699,0.0704,0.0708,0.084,0.084,0.084,0,0,0,0,0,0,0.0487,0.0489,0.0526,0.0511,0.0514,0.0515,0.0532,0.0534,0.0576,0.0586,0.0595,0.0574,0.0638,0.0652,0.0722,0.0748,0.0707,0.0712,0.084,0.084,0.084,0.0907,0,0,0,0,0,0,0.0487,0.049,0.0505,0.051,0.0514,0.0546,0.0532,0.0535,0.0562,0.0563,0.0623,0.063,0.0638,0.0713,0.0728,0.0756,0.0717,0.0839,0.084,0.084,0.0905,0.091,0.0914,0,0,0,0,0,0.0486,0.0493,0.0507,0.0508,0.0532,0.0545,0.0551,0.0552,0.0566,0.0588,0.0626,0.063,0.0723,0.072,0.0736,0.0766,0.0839,0.084,0.084,0.0903,0.0909,0.0914,0,0,0,0,0,0,0.0499,0.0495,0.051,0.052,0.0538,0.0544,0.0558,0.0574,0.0627,0.0643,0.0662,0.0673,0.074,0.0741,0.0736,0.0797,0.0771,0.0775,0.0813,0.0819,0.0823,0.0836,0.0722,0,0,0,0,0,0.0508,0.0513,0.0522,0.0535,0.0547,0.057,0.0581,0.0596,0.0626,0.0649,0.0683,0.0715,0.0753,0.0777,0.0812,0.0868,0.0881,0.0884,0.0889,0.0893,0.0909,0.0949,0.096,0.0841,0.0841,0.0841,0,0,0.0517,0.0513,0.0519,0.0538,0.0558,0.0587,0.0578,0.0609,0.0653,0.0657,0.0736,0.0754,0.0774,0.0826,0.0853,0.0832,0.0931,0.0893,0.0897,0.0912,0.0951,0.0963,0.0974,0.0842,0.0841,0.0841,0,0,0.0523,0.0542,0.0552,0.0568,0.0591,0.0614,0.0631,0.0666,0.0704,0.0785,0.078,0.0808,0.0889,0.088,0.0894,0.0945,0.0964,0.0951,0.0987,0.1025,0.1037,0.1046,0.1079,0.1091,0.0942,0.0942,0.0943,0,0.0525,0.0552,0.0559,0.0574,0.0587,0.0632,0.0663,0.0717,0.0773,0.0806,0.082,0.0904,0.0912,0.0952,0.0956,0.096,0.0991,0.0972,0.1035,0.1045,0.1054,0.1085,0.1098,0.0946,0.0945,0.0945,0.0945,0,0.0544,0.0571,0.0579,0.0619,0.0643,0.0677,0.0734,0.0786,0.0848,0.0893,0.0974,0.0992,0.1029,0.1023,0.102,0.1067,0.1072,0.105,0.103,0.1071,0.11,0.1112,0.095,0.0949,0.0948,0.0947,0,0,0.0525,0.0579,0.0586,0.0614,0.067,0.0695,0.0773,0.0846,0.0906,0.0985,0.105,0.11,0.1115,0.1127,0.111,0.1129,0.1205,0.1124,0.1124,0.1172,0.131,0.1212,0.1216,0.1213,0.1216,0.1218,0.1306,0,0.054,0.0579,0.0604,0.0666,0.0697,0.0745,0.0815,0.089,0.097,0.1049,0.1093,0.1163,0.1159,0.1175,0.1206,0.1213,0.1242,0.1184,0.125,0.1251,0.1173,0.1227,0.1225,0.1315,0.1318,0.132,0.1322,0,0.0553,0.0576,0.0632,0.0696,0.0717,0.0765,0.0862,0.0932,0.1043,0.1105,0.1181,0.123,0.1287,0.1266,0.1351,0.1328,0.1335,0.1332,0.1335,0.1231,0.1176,0.1263,0.1344,0.1342,0.134,0.1339,0.1337,0,0.054,0.0597,0.0645,0.0664,0.0746,0.0785,0.0845,0.095,0.1016,0.1139,0.12,0.1297,0.1343,0.14,0.1422,0.1408,0.15,0.1469,0.1387,0.138,0.1414,0.1402,0.1523,0.1523,0.1523,0.1523,0.1523,0,0.0536,0.057,0.0647,0.0669,0.0734,0.0795,0.0875,0.0949,0.1054,0.113,0.1237,0.1296,0.1384,0.1445,0.1465,0.1477,0.1548,0.1416,0.1403,0.1437,0.1427,0.1423,0.141,0.1526,0.1525,0.1525,0.1524,0,0.0516,0.0562,0.0611,0.0699,0.0729,0.0779,0.0873,0.0926,0.1048,0.1143,0.1187,0.1318,0.1407,0.1474,0.1535,0.1508,0.1527,0.1498,0.1545,0.153,0.1376,0.1366,0.1445,0.1442,0.144,0.1438,0.1437,0,0.0499,0.0538,0.0627,0.0644,0.0683,0.0753,0.0796,0.0911,0.0958,0.114,0.1173,0.1301,0.1375,0.1409,0.1475,0.1526,0.1489,0.1496,0.1429,0.1392,0.1372,0.1365,0.1357,0.1433,0.1433,0.1432,0.1432,0,0.0471,0.0524,0.0562,0.0608,0.0646,0.0686,0.0755,0.0786,0.0922,0.1042,0.1132,0.1203,0.1285,0.1346,0.1383,0.141,0.1501,0.1472,0.1476,0.1414,0.1379,0.1359,0.1355,0.1424,0.1425,0.1426,0.1426,0,0.0445,0.0463,0.0519,0.0559,0.0589,0.0607,0.0654,0.0709,0.0777,0.0978,0.0994,0.1148,0.1251,0.1284,0.1329,0.1349,0.1329,0.128,0.1293,0.1303,0.1215,0.1148,0.113,0,0,0,0,0,0.0417,0.0441,0.046,0.048,0.0506,0.0535,0.0616,0.0666,0.0798,0.0829,0.0913,0.0992,0.1088,0.1157,0.1152,0.1271,0.1329,0.126,0.1276,0.1382,0.1391,0.1301,0,0,0,0,0,0,0.039,0.0419,0.0437,0.0406,0.041,0.0429,0.0484,0.0577,0.0594,0.0743,0.079,0.0916,0.101,0.1073,0.1126,0.115,0.1137,0.1351,0.1349,0.1377,0.1385,0.1392,0.1303,0,0,0,0,0]},{"header":{"parameterUnit":"m.s-1","parameterCategory":2,"la1":30.2991,"la2":30.254,"lo1":-89.0895,"lo2":-89.0444,"dy":0.0017,"dx":0.0017,"nx":28,"ny":28,"refTime":"2023-08-23T03:00:00:Z","depth":"4","parameterNumber":3,"parameterNumberName":"V-component_of_CURRENTS"},"data":[0,0,0,0,0,0,0,0,0,0,0,0,0,0,0,0,0,0,0,0,0,0,0,0,0,0,0,0,0,0,0,0,0,0,0,0,0,0,0,0,0,0,0,0,0,0,0,0,0,0,0,0,0,0,0,0,0,0,0.0377,0.0377,0,0.0372,0.0372,0.0372,0.0355,0.0355,0.0355,0.0355,0.0289,0.0288,0.0286,0,0,0,0,0,0,0,0,0,0,0,0,0,0.0388,0.0388,0.0377,0.0377,0.0377,0.0372,0.0372,0.0372,0.0355,0.0355,0.0355,0.0354,0.029,0.0288,0.0286,0,0,0,0,0,0,0,0,0,0,0,0,0,0.0382,0.0388,0.0377,0.0369,0.0368,0.0372,0.0372,0.0372,0.0355,0.0355,0.0355,0.0354,0.029,0.0288,0.0286,0.028,0,0,0.0279,0.0278,0,0,0,0,0,0,0,0,0.0383,0.0382,0.037,0.037,0.0369,0.0365,0.0352,0.0339,0.0356,0.0359,0.0355,0.0354,0.031,0.0306,0.0305,0.0277,0.0274,0.0279,0.0278,0.0277,0.0276,0,0,0,0,0,0,0,0.0383,0.0382,0.0374,0.037,0.037,0.0371,0.037,0.035,0.0335,0.0359,0.0358,0.0359,0.0309,0.0308,0.0304,0.0273,0.0279,0.0277,0.0276,0.0275,0.0195,0.0194,0,0,0,0,0,0,0.0385,0.0382,0.0374,0.0374,0.0376,0.0372,0.037,0.0366,0.0336,0.0332,0.036,0.0359,0.0312,0.0306,0.0301,0.0286,0.0277,0.0275,0.0273,0.0196,0.0195,0.0194,0,0,0,0,0,0,0.0386,0.0385,0.0374,0.0379,0.0378,0.0372,0.0367,0.0366,0.0374,0.0338,0.0332,0.037,0.0311,0.0304,0.0286,0.0283,0.0274,0.0272,0.0197,0.0196,0.0195,0.0259,0,0,0,0,0,0,0.0386,0.0384,0.0391,0.0379,0.0378,0.0379,0.0368,0.0366,0.0375,0.0374,0.0345,0.0338,0.031,0.029,0.0284,0.028,0.027,0.0198,0.0196,0.0195,0.0258,0.026,0.0262,0,0,0,0,0,0.0386,0.0391,0.0392,0.0391,0.0384,0.0379,0.0379,0.0372,0.0376,0.0379,0.0359,0.0339,0.0275,0.0288,0.0281,0.0277,0.0199,0.0197,0.0195,0.0257,0.026,0.0262,0,0,0,0,0,0,0.0398,0.039,0.039,0.0392,0.0389,0.0377,0.0385,0.0383,0.0373,0.0377,0.0342,0.0334,0.0314,0.0283,0.0298,0.0244,0.0228,0.0225,0.0278,0.028,0.0282,0.0302,0.0268,0,0,0,0,0,0.0405,0.0407,0.0399,0.0403,0.0405,0.0401,0.0403,0.04,0.0388,0.0384,0.0361,0.033,0.0301,0.0283,0.0255,0.0234,0.0213,0.0219,0.0222,0.0224,0.0232,0.0197,0.0198,0.0188,0.0188,0.0188,0,0,0.0415,0.0408,0.0412,0.0406,0.0407,0.0414,0.0401,0.041,0.0418,0.0378,0.0379,0.0345,0.0298,0.0273,0.026,0.0248,0.0215,0.0222,0.0225,0.0232,0.0196,0.0197,0.0198,0.0187,0.0187,0.0188,0,0,0.0431,0.0427,0.0439,0.0431,0.0434,0.0434,0.0441,0.0435,0.0437,0.0439,0.0401,0.0362,0.0335,0.0284,0.026,0.0253,0.0234,0.0244,0.0269,0.0235,0.0236,0.0237,0.022,0.0219,0.0239,0.0239,0.0239,0,0.0444,0.0452,0.0442,0.0443,0.0448,0.0447,0.0463,0.0463,0.0451,0.0451,0.0447,0.0383,0.0337,0.0291,0.0283,0.0259,0.0252,0.027,0.0241,0.0241,0.0241,0.0223,0.0221,0.0242,0.0242,0.0241,0.0241,0,0.0464,0.0471,0.0476,0.0481,0.0484,0.0496,0.0495,0.0499,0.051,0.0505,0.0481,0.042,0.038,0.0347,0.0319,0.0282,0.0283,0.0258,0.0245,0.0247,0.0227,0.0224,0.0246,0.0245,0.0244,0.0243,0,0,0.049,0.0494,0.0497,0.0506,0.0507,0.0512,0.0528,0.054,0.0557,0.0534,0.0541,0.0468,0.0444,0.0411,0.0355,0.0312,0.0295,0.0295,0.0292,0.0297,0.0248,0.0237,0.0233,0.0281,0.028,0.028,0.0239,0,0.0515,0.0535,0.0531,0.0557,0.0569,0.0562,0.0583,0.0586,0.0593,0.0593,0.0532,0.0519,0.0468,0.0452,0.0403,0.0325,0.0289,0.031,0.0229,0.0226,0.0232,0.0228,0.0278,0.0237,0.0236,0.0235,0.0235,0,0.0539,0.0547,0.0585,0.06,0.0609,0.0631,0.0659,0.0674,0.0667,0.0669,0.0639,0.0605,0.0536,0.0497,0.0384,0.0412,0.0343,0.0278,0.0274,0.0241,0.0209,0.0228,0.0229,0.0229,0.023,0.023,0.023,0,0.0564,0.0583,0.0623,0.0621,0.0643,0.0668,0.0693,0.0704,0.0729,0.072,0.0735,0.0661,0.0629,0.0539,0.0418,0.0413,0.0301,0.0269,0.019,0.0189,0.0185,0.0184,0.0191,0.0191,0.0191,0.0191,0.0191,0,0.0582,0.0605,0.0643,0.0653,0.071,0.0713,0.0774,0.0781,0.0804,0.0838,0.0787,0.0781,0.0642,0.0564,0.0452,0.0323,0.033,0.0201,0.0176,0.0213,0.0215,0.0184,0.0183,0.0189,0.019,0.019,0.019,0,0.0595,0.0618,0.0652,0.0695,0.0723,0.0763,0.0834,0.0872,0.0893,0.0932,0.0938,0.0873,0.0779,0.0639,0.0474,0.0368,0.0238,0.0186,0.0257,0.0236,0.0143,0.0147,0.0103,0.0102,0.0101,0.0101,0.01,0,0.0596,0.0627,0.0689,0.0729,0.0758,0.0823,0.0882,0.0918,0.0957,0.0986,0.1003,0.0933,0.0872,0.0644,0.0486,0.0284,0.0236,0.0167,0.0131,0.0154,0.0133,0.0137,0.0141,0.0099,0.0099,0.0099,0.0099,0,0.0603,0.0641,0.067,0.076,0.0828,0.0897,0.0976,0.1006,0.1054,0.1072,0.1051,0.0943,0.083,0.0643,0.0487,0.0333,0.0211,0.0159,0.0159,0.0124,0.0149,0.013,0.0135,0.0097,0.0097,0.0097,0.0097,0,0.0614,0.0638,0.0702,0.0779,0.0868,0.0953,0.0985,0.1033,0.1069,0.1095,0.1081,0.0972,0.0898,0.0669,0.0528,0.0379,0.0323,0.0245,0.0239,0.0239,0.0279,0.033,0.0317,0,0,0,0,0,0.062,0.0661,0.0726,0.0806,0.0897,0.0959,0.1046,0.1072,0.1112,0.1103,0.1094,0.0993,0.0782,0.0688,0.0537,0.0502,0.0294,0.0316,0.0199,0.0084,0.0087,0.0108,0,0,0,0,0,0,0.0623,0.0684,0.0715,0.0825,0.0893,0.0998,0.1056,0.1086,0.1069,0.1084,0.0973,0.0934,0.0729,0.0875,0.053,0.0488,0.0384,0.0226,0.0222,0.0083,0.0085,0.0087,0.011,0,0,0,0,0]}]]